Tracking 25995 objects as of 19-Aug-2022
HD Live streaming from Space Station
objects crossing your sky now

THOR ABLESTAR DEB

Track THOR ABLESTAR DEB now!
10-day predictions


NORAD ID: 48811
Int'l Code: 1961-015MP
Perigee: 904.5 km
Apogee: 1,049.0 km
Inclination: 67.1 °
Period: 104.5 minutes
Semi major axis: 7347 km
RCS: Unknown
Launch date: June 29, 1961
Source: United States (US)
Launch site: AIR FORCE EASTERN TEST RANGE (AFETR)

Note: This is SATELLITE DEBRIS
aabbcc
Your satellite tracking list
Your tracking list is empty




NASA's NSSDC Master Catalog

Two Line Element Set (TLE):
1 48811U 61015MP  22230.95157247  .00000211  00000-0  27017-3 0  9998
2 48811  67.0601  66.2303 0098324  92.7302 268.5031 13.78391793439825
Source of the keplerian elements: AFSPC